Terug naar catalogus

STARLINK-36250

ActiefCommunicatieVLEO
NORAD 68513·PAYLOAD·🇺🇸 United States

Gelanceerd Mar 30, 2026 vanaf Cape Canaveral Space Force Station

Loading…

Volgende Passages (komende 24 uur)

TLE

VersSource: CelesTrak SupGP

Epoch: Sep 15, 2026, 03:49 UTC

1 68513C 26068F   26258.15951389  .00046016  00000+0  13593-2 0  2586
2 68513  53.1592 324.4036 0001250  91.1231 180.3192 15.34374432    18

Volg STARLINK-36250 in realtime met AllMySat

Download on the App Store